Powrót do katalogu

TITAN 3C TRANSTAGE DEB

LostMEO
NORAD 59983·DEBRIS·🇺🇸 United States

Wystrzelony Sep 26, 1968 z Cape Canaveral Space Force Station

Loading…

Następne Przeloty (najbliższe 24 godziny)

TLE

NieaktualneSource: Space-Track

Epoka: Aug 12, 2026, 15:54 UTC

1 59983U 68081AR  26224.66299216 -.00000116  00000-0  00000-0 0  9993
2 59983   2.8375  59.7506 0205473  21.6802 339.5031  1.02054216  8534

Śledź TITAN 3C TRANSTAGE DEB w czasie rzeczywistym z AllMySat

Download on the App Store